Location: Newark
(49.2191°N, 12.6671°E)
Time: 15:15:46
(UTC+00:00)

Transit 2A - Pass Details

Date: 31 January 2020
Orbit: 600 x 959 km, 66.7° (Epoch: 16 February)

Event Time Altitude Azimuth Distance (km) Brightness Sun altitude
Rises 19:36:13 0° 261° (W) 2,851 9.8 -34.7°
Reaches altitude 10° 19:39:00 10° 280° (W) 1,946 8.9 -35.1°
Enters shadow 19:40:52 17° 303° (WNW) 1,535 8.2 -35.4°
